KI4SSU Weather Reports


Display with metric or nautical units.
time (UTC)temp
F
wind
direction
speed
MPH
gust
MPH
rain 1hr
in
rain 24hr
in
rain mn
in
humidity
%
barometer
mb
20260504141126 69 199 7.0 9.0 0.00 0.00 0.00
20260504140626 69 265 6.0 8.0 0.00 0.00 0.00
20260504140126 69 259 5.0 8.0 0.00 0.00 0.00
20260504130626 65 218 6.0 11.0 0.00 0.00 0.00
20260504130126 65 220 3.0 10.0 0.00 0.00 0.00
20260504120127 63 210 2.0 8.0 0.00 0.00 0.00
20260504110627 62 232 3.0 6.0 0.00 0.00 0.00
20260504100128 63 227 4.0 2.0 0.00 0.00 0.00
20260504090127 64 149 3.0 7.0 0.00 0.00 0.00
20260504081627 64 222 3.0 6.0 0.00 0.00 0.00
20260504081127 64 214 3.0 6.0 0.00 0.00 0.00
20260504080128 64 307 2.0 3.0 0.00 0.00 0.00
20260504070128 65 260 2.0 4.0 0.00 0.00 0.00
20260504060128 66 218 2.0 4.0 0.00 0.00 0.00
20260504050629 67 114 1.0 1.0 0.00 0.00 0.00
20260504050128 68 206 2.0 6.0 0.00 0.00 0.00
20260504045628 68 176 1.0 2.0 0.00 0.00 0.00
20260504045129 68 190 4.0 2.0 0.00 0.00 0.00
20260504044628 68 258 4.0 3.0 0.00 0.00 0.00
20260504044128 68 270 2.0 3.0 0.00 0.00 0.00
20260504043629 69 228 3.0 3.0 0.00 0.00 0.00
20260504043128 69 120 3.0 1.0 0.00 0.00 0.00
20260504042628 69 262 2.0 9.0 0.00 0.00 0.00
20260504042128 69 222 2.0 8.0 0.00 0.00 0.00
20260504041628 69 210 3.0 4.0 0.00 0.00 0.00
20260504041128 69 238 6.0 10.0 0.00 0.00 0.00
20260504040628 69 237 3.0 7.0 0.00 0.00 0.00
20260504040129 69 221 3.0 4.0 0.00 0.00 0.00
20260504035628 69 180 2.0 4.0 0.00 0.00 0.00
20260504035128 70 197 3.0 4.0 0.00 0.00 0.00
20260504034629 70 183 3.0 3.0 0.00 0.00 0.00
20260504034128 70 208 2.0 5.0 0.00 0.00 0.00
20260504033628 69 220 4.0 7.0 0.00 0.00 0.00
20260504033128 70 220 4.0 4.0 0.00 0.00 0.00
20260504032129 70 217 5.0 3.0 0.00 0.00 0.00
20260504031628 70 217 1.0 7.0 0.00 0.00 0.00
20260504031129 70 186 1.0 1.0 0.00 0.00 0.00
20260504030629 71 155 3.0 3.0 0.00 0.00 0.00
20260504030128 71 246 1.0 4.0 0.00 0.00 0.00
20260504025629 71 256 1.0 2.0 0.00 0.00 0.00
20260504025129 71 210 1.0 1.0 0.00 0.00 0.00
20260504024128 71 183 2.0 2.0 0.00 0.00 0.00
20260504023629 71 184 2.0 3.0 0.00 0.00 0.00
20260504023129 71 79 2.0 3.0 0.00 0.00 0.00
20260504022629 71 191 3.0 5.0 0.00 0.00 0.00
20260504022128 72 144 3.0 3.0 0.00 0.00 0.00
20260504021128 72 245 3.0 8.0 0.00 0.00 0.00
20260504020129 73 244 6.0 9.0 0.00 0.00 0.00
20260504015629 73 214 2.0 7.0 0.00 0.00 0.00
20260504014629 73 220 2.0 7.0 0.00 0.00 0.00
20260504014129 73 124 3.0 1.0 0.00 0.00 0.00
20260504013629 73 93 4.0 3.0 0.00 0.00 0.00
20260504012629 74 214 4.0 1.0 0.00 0.00 0.00
20260504012129 74 75 2.0 4.0 0.00 0.00 0.00
20260504011629 74 227 2.0 5.0 0.00 0.00 0.00
20260504010915 75 148 6.0 5.0 0.00 0.00 0.00
20260504010629 75 173 2.0 5.0 0.00 0.00 0.00
20260504010129 75 148 6.0 5.0 0.00 0.00 0.00
20260504005629 75 90 2.0 6.0 0.00 0.00 0.00
20260504005129 75 225 2.0 2.0 0.00 0.00 0.00
20260504004629 76 201 0.0 1.0 0.00 0.00 0.00
20260504004129 76 128 1.0 3.0 0.00 0.00 0.00
20260504003129 77 231 1.0 4.0 0.00 0.00 0.00
20260504002129 78 248 3.0 2.0 0.00 0.00 0.00
20260504001630 78 252 4.0 3.0 0.00 0.00 0.00
20260504001129 78 228 5.0 6.0 0.00 0.00 0.00
20260504000630 79 153 3.0 7.0 0.00 0.00 0.00
20260503235630 79 208 1.0 6.0 0.00 0.00 0.00
20260503235130 79 28 6.0 5.0 0.00 0.00 0.00
20260503234129 80 183 6.0 11.0 0.00 0.00 0.00
20260503233630 81 201 3.0 3.0 0.00 0.00 0.00
20260503233129 81 228 5.0 10.0 0.00 0.00 0.00
20260503232630 80 253 5.0 8.0 0.00 0.00 0.00
20260503232129 81 208 4.0 6.0 0.00 0.00 0.00
20260503231630 81 193 3.0 6.0 0.00 0.00 0.00
20260503231130 82 196 1.0 3.0 0.00 0.00 0.00
20260503230630 81 310 4.0 4.0 0.00 0.00 0.00
20260503230129 81 194 6.0 6.0 0.00 0.00 0.00
20260503224130 82 206 2.0 8.0 0.00 0.00 0.00
20260503222630 81 246 5.0 6.0 0.00 0.00 0.00
20260503222130 82 213 5.0 11.0 0.00 0.00 0.00
20260503221630 83 200 6.0 8.0 0.00 0.00 0.00
20260503221129 84 213 4.0 10.0 0.00 0.00 0.00
20260503220630 84 259 6.0 8.0 0.00 0.00 0.00
20260503215630 84 232 4.0 4.0 0.00 0.00 0.00
20260503215130 84 213 4.0 7.0 0.00 0.00 0.00
20260503214630 84 210 4.0 11.0 0.00 0.00 0.00
20260503214130 84 238 4.0 6.0 0.00 0.00 0.00
20260503213629 84 158 7.0 7.0 0.00 0.00 0.00
20260503213129 84 106 3.0 0.0 0.00 0.00 0.00
20260503212630 84 241 6.0 7.0 0.00 0.00 0.00
20260503212130 84 269 5.0 6.0 0.00 0.00 0.00
20260503211630 86 183 4.0 9.0 0.00 0.00 0.00
20260503211130 84 245 3.0 7.0 0.00 0.00 0.00
20260503210130 84 255 4.0 7.0 0.00 0.00 0.00
20260503205630 82 237 3.0 6.0 0.00 0.00 0.00
20260503204630 85 225 5.0 6.0 0.00 0.00 0.00
20260503203630 85 265 5.0 9.0 0.00 0.00 0.00
20260503202630 86 169 4.0 5.0 0.00 0.00 0.00
20260503202130 87 153 3.0 5.0 0.00 0.00 0.00
20260503201630 85 239 7.0 10.0 0.00 0.00 0.00
20260503201130 86 128 3.0 3.0 0.00 0.00 0.00
20260503200630 86 194 3.0 5.0 0.00 0.00 0.00
20260503200130 85 199 4.0 5.0 0.00 0.00 0.00
20260503195630 84 231 4.0 10.0 0.00 0.00 0.00
20260503195130 85 155 2.0 3.0 0.00 0.00 0.00
20260503194630 86 183 4.0 9.0 0.00 0.00 0.00
20260503194130 86 199 4.0 7.0 0.00 0.00 0.00
20260503193630 86 179 4.0 6.0 0.00 0.00 0.00
20260503193130 85 248 7.0 4.0 0.00 0.00 0.00
20260503192630 84 262 8.0 6.0 0.00 0.00 0.00
20260503192130 86 214 5.0 5.0 0.00 0.00 0.00
20260503191630 88 222 4.0 8.0 0.00 0.00 0.00
20260503191130 87 225 6.0 11.0 0.00 0.00 0.00
20260503190130 85 252 3.0 6.0 0.00 0.00 0.00
20260503185630 86 231 6.0 9.0 0.00 0.00 0.00
20260503185130 86 176 2.0 7.0 0.00 0.00 0.00
20260503184630 86 263 5.0 7.0 0.00 0.00 0.00
20260503184130 86 215 2.0 5.0 0.00 0.00 0.00
20260503183630 86 228 3.0 9.0 0.00 0.00 0.00
20260503183131 88 206 4.0 9.0 0.00 0.00 0.00
20260503182631 88 222 4.0 6.0 0.00 0.00 0.00
20260503182130 87 251 6.0 4.0 0.00 0.00 0.00
20260503181630 86 300 3.0 6.0 0.00 0.00 0.00
20260503181130 85 225 3.0 9.0 0.00 0.00 0.00
20260503180630 84 252 6.0 6.0 0.00 0.00 0.00
20260503175130 83 46 4.0 5.0 0.00 0.00 0.00
20260503174630 84 215 6.0 7.0 0.00 0.00 0.00
20260503173630 84 227 7.0 8.0 0.00 0.00 0.00
20260503173130 83 245 3.0 4.0 0.00 0.00 0.00
20260503172630 81 270 4.0 3.0 0.00 0.00 0.00
20260503172131 82 193 5.0 7.0 0.00 0.00 0.00
20260503171130 82 251 7.0 9.0 0.00 0.00 0.00
20260503170631 81 269 3.0 6.0 0.00 0.00 0.00
20260503170130 81 251 3.0 9.0 0.00 0.00 0.00
20260503160131 77 276 2.0 5.0 0.00 0.00 0.00
20260503150631 71 256 5.0 6.0 0.00 0.00 0.00
20260503150131 71 227 4.0 8.0 0.00 0.00 0.00